Temp
87 80 77 80 82 81 80 78 77 82 87 81 79 81 86 91 90 87 83 79 78 75 77 75 73 73 74 75 74 76 71 85 83 84 83 83 84 85 85 86 86 84 83 84
81 76 83 84 83 80 79 76 77 82 85 81 79 79 85 88 87 84 80 76 74 70 72 70 69 69 69 69 70 70 73 73 80 83 83 85 85 86 86 86 84 84 84 84
77 80 84 81 80 77 78 75 75 74 79 82 78 75 80 85 84 83 80 77 73 65 64 65 66 66 68 66 66 68 68 70 69 73 77 79 84 83 85 85 84 84 84 83
81 84 80 78 77 78 71 80 77 75 72 66 80 64 78 78 77 79 76 75 71 65 65 65 65 66 66 66 67 67 66 67 68 69 72 75 74 73 79 84 86 83 83 83
76 78 77 75 77 79 73 80 75 75 71 70 72 68 74 78 72 74 72 72 70 68 65 64 66 68 70 69 67 65 65 65 65 65 66 66 67 70 72 72 72 76 79 82
80 86 81 79 81 80 81 75 75 75 72 60 69 69 70 73 72 72 72 70 69 68 67 67 68 68 70 72 69 66 65 63 64 64 64 63 63 64 64 66 67 66 69 67
78 78 83 80 74 81 77 70 59 58 61 59 75 70 66 71 74 74 69 69 69 70 68 67 67 66 66 69 71 70 65 64 64 62 63 63 63 63 62 63 65 65 65 65
67 65 77 80 75 70 71 69 59 48 53 61 72 63 64 74 76 75 72 70 69 67 68 67 67 67 66 65 66 68 70 69 68 65 63 63 63 62 62 63 63 63 65 66
64 66 78 77 78 75 70 64 72 60 63 59 65 68 71 74 73 74 73 70 67 66 66 67 68 68 66 66 65 66 66 66 67 68 68 64 63 63 63 65 66 65 67 67
70 59 75 75 76 77 71 74 59 63 48 48 60 63 58 66 68 71 71 69 67 67 66 68 66 65 68 68 67 67 66 64 65 65 65 66 65 66 67 67 66 66 66 68
72 65 65 72 68 67 67 65 66 64 60 50 49 58 70 68 68 68 70 73 69 68 68 67 67 69 68 68 68 66 65 64 64 65 64 63 63 64 65 64 65 65 66 66
69 63 57 64 75 75 71 65 64 55 53 59 57 57 74 72 73 72 72 75 72 69 70 69 69 67 69 67 66 65 64 64 63 64 63 61 63 63 61 63 64 65 64 64
67 61 53 59 67 69 63 67 66 64 61 52 48 53 75 74 73 75 73 75 75 69 70 70 68 68 66 66 66 66 66 64 63 62 61 62 61 61 61 61 63 64 64 63
66 60 56 51 57 64 60 63 67 63 54 56 57 61 67 68 68 72 73 74 75 76 73 71 69 68 68 66 67 67 67 68 69 69 67 66 65 64 63 63 63 64 64 64
65 54 59 61 64 65 63 63 65 61 62 56 60 61 66 68 71 73 73 74 73 74 75 70 70 67 66 67 68 69 71 71 71 69 68 65 65 64 63 62 63 64 65 65
66 55 59 56 62 64 61 65 64 64 64 63 63 61 72 74 74 72 72 72 71 72 70 74 67 61 64 67 66 68 70 71 67 68 66 65 65 65 63 64 62 63 63 63
61 58 54 48 59 60 54 61 62 63 66 64 58 65 72 70 70 69 70 71 70 65 61 65 60 58 63 67 70 69 69 68 66 66 66 68 66 68 67 66 64 62 61 62
60 57 56 48 53 41 61 69 68 63 64 67 67 68 70 71 71 73 71 69 66 65 63 68 66 68 70 71 70 71 68 70 67 66 67 68 69 69 68 66 63 62 63 60
66 60 51 45 46 55 61 63 62 59 58 67 66 68 69 70 70 63 68 69 68 64 66 67 68 68 67 67 66 66 64 65 66 66 66 69 68 67 66 64 60 61 61 60
65 63 54 51 43 40 58 66 70 67 52 65 66 64 65 66 58 57 64 64 59 66 66 65 65 65 59 63 63 64 61 63 63 66 67 68 68 66 62 61 61 61 61 61
54 54 48 47 44 52 65 69 68 48 49 62 63 64 62 59 62 67 68 63 65 62 62 66 65 64 61 65 65 62 63 61 63 67 67 66 65 63 62 62 61 60 60 58
53 47 48 51 44 40 65 65 55 58 64 65 65 65 64 65 66 66 67 62 60 54 58 64 63 62 63 60 61 59 58 62 64 64 64 63 63 63 63 60 59 59 58 57
52 59 54 50 50 61 65 63 66 64 63 66 66 67 66 65 65 65 61 56 57 60 57 63 62 59 60 63 64 60 61 61 62 60 59 58 59 59 59 58 57 56 57 56
61 65 54 55 62 63 66 68 69 67 65 67 67 66 66 64 64 62 59 57 58 58 58 59 59 59 60 61 61 58 58 59 59 56 57 58 58 57 58 57 56 55 52 54
62 62 57 57 62 62 65 66 67 66 67 67 68 66 64 62 61 58 58 57 60 61 62 62 60 57 57 59 58 59 59 59 57 55 55 53 54 54 56 56 53 54 52 51
64 59 54 51 60 58 60 65 68 65 65 66 63 63 64 61 57 53 56 60 61 61 60 59 59 58 57 58 57 58 59 58 55 52 53 53 54 54 52 52 54 47 47 45
MSLP
1004.40 1004.09 1003.25 1003.23 1003.21 1003.24 1003.00 1002.27 1001.83 1001.60 1001.90 1002.72 1002.99 1002.58 1002.04 1001.92 1002.85 1004.21 1006.05 1007.91 1009.37 1010.88 1011.89 1012.44 1012.56 1012.29 1011.54 1010.55 1009.85 1010.10 1005.66 1007.87 1007.63 1009.67 1010.31 1010.59 1010.49 1010.53 1010.49 1010.66 1010.61 1010.80 1010.91 1011.00
1004.05 1003.50 1003.63 1004.03 1004.17 1004.04 1003.60 1003.17 1002.65 1002.39 1002.79 1003.31 1003.12 1002.75 1002.44 1002.43 1003.19 1005.01 1007.17 1009.57 1011.29 1012.90 1013.89 1014.71 1014.55 1013.83 1013.19 1012.65 1012.08 1010.18 1008.73 1008.56 1008.89 1009.05 1009.61 1009.83 1010.14 1010.08 1010.28 1010.41 1010.22 1010.37 1010.47 1010.66
1003.58 1003.96 1004.50 1004.61 1004.33 1004.26 1003.88 1003.67 1003.47 1003.74 1003.74 1003.75 1003.12 1002.56 1002.22 1002.91 1004.42 1006.27 1008.39 1010.56 1012.57 1014.96 1015.78 1015.91 1015.44 1014.97 1014.51 1014.00 1013.56 1013.17 1012.78 1012.10 1011.73 1011.06 1010.02 1009.83 1009.55 1009.69 1009.63 1009.49 1009.53 1009.65 1009.81 1010.37
1003.69 1004.26 1004.73 1004.84 1004.59 1004.63 1004.63 1004.69 1004.83 1004.93 1004.71 1003.78 1003.03 1002.53 1001.69 1003.11 1005.01 1006.91 1009.08 1011.19 1013.43 1015.69 1016.32 1016.53 1016.33 1015.87 1015.66 1015.43 1015.13 1014.61 1014.19 1013.86 1013.15 1012.42 1011.82 1011.40 1011.20 1010.92 1009.85 1008.93 1008.01 1007.03 1007.33 1009.17
1004.42 1004.39 1004.83 1004.96 1004.89 1005.59 1005.58 1005.67 1005.88 1005.56 1005.12 1004.61 1003.79 1003.18 1002.15 1003.36 1005.37 1007.42 1009.85 1012.11 1014.09 1015.63 1016.62 1016.77 1016.73 1016.51 1016.35 1016.29 1015.97 1015.73 1015.29 1014.73 1014.49 1014.06 1013.75 1013.39 1012.97 1012.43 1011.79 1010.69 1008.82 1004.02 1007.85 1008.02
1004.90 1005.15 1005.59 1005.65 1005.92 1006.24 1006.32 1006.39 1005.85 1005.31 1004.80 1004.21 1003.41 1003.48 1003.25 1004.01 1005.61 1008.10 1010.56 1012.66 1014.26 1015.54 1016.53 1016.83 1016.92 1016.99 1016.42 1016.41 1016.51 1016.29 1015.92 1015.78 1015.34 1015.03 1014.89 1014.70 1014.16 1013.78 1013.42 1012.60 1011.05 1009.11 1009.45 1010.36
1004.40 1004.80 1005.27 1006.50 1006.49 1005.89 1006.42 1006.35 1005.87 1004.81 1003.83 1002.91 1002.15 1002.64 1004.66 1006.14 1007.17 1008.52 1010.77 1012.59 1014.11 1015.15 1016.19 1016.67 1016.96 1017.18 1017.16 1016.81 1016.55 1016.52 1016.35 1016.12 1015.90 1015.43 1015.63 1015.32 1015.26 1015.10 1014.85 1014.45 1013.87 1012.92 1012.41 1012.94
1005.33 1004.94 1005.46 1006.41 1006.93 1007.11 1007.10 1007.23 1007.19 1006.26 1005.36 1003.97 1003.90 1004.15 1005.81 1007.16 1008.33 1009.61 1011.33 1012.79 1013.81 1015.00 1015.94 1016.77 1017.26 1017.45 1017.47 1017.52 1017.24 1016.73 1016.33 1016.14 1016.07 1016.05 1016.04 1015.94 1015.85 1015.82 1015.43 1015.23 1014.92 1014.65 1014.07 1013.57
1007.15 1006.50 1007.07 1007.40 1007.73 1008.13 1007.54 1007.76 1007.95 1007.85 1007.27 1006.27 1005.25 1005.68 1007.08 1007.86 1008.77 1009.84 1010.91 1012.47 1013.59 1014.58 1015.59 1016.63 1017.12 1017.44 1017.60 1017.55 1017.51 1017.27 1017.09 1016.92 1016.61 1016.55 1016.35 1016.35 1016.20 1016.07 1016.02 1015.58 1015.33 1014.95 1014.31 1014.19
1008.43 1008.29 1007.59 1008.01 1008.58 1008.42 1008.60 1008.85 1008.76 1008.33 1007.96 1006.95 1006.01 1005.81 1006.90 1008.03 1008.86 1009.93 1010.88 1012.02 1013.40 1014.28 1015.22 1016.31 1017.32 1017.67 1017.53 1017.68 1017.77 1017.61 1017.53 1017.57 1017.49 1017.38 1017.23 1017.11 1016.94 1016.66 1016.34 1015.95 1015.50 1015.21 1014.94 1014.78
1009.71 1009.57 1008.93 1008.53 1008.32 1007.95 1008.57 1008.95 1009.05 1009.31 1009.27 1008.63 1007.84 1007.16 1007.81 1008.58 1009.53 1010.28 1010.93 1011.42 1012.48 1013.51 1014.34 1015.06 1015.99 1016.85 1017.47 1017.80 1017.91 1017.91 1017.86 1017.79 1017.78 1017.72 1017.68 1017.65 1017.55 1017.36 1017.09 1016.79 1016.32 1015.93 1015.49 1015.13
1011.05 1010.85 1010.02 1009.06 1008.31 1008.80 1009.27 1009.73 1010.04 1009.94 1009.73 1009.11 1008.67 1008.14 1008.25 1008.93 1009.35 1009.82 1010.14 1010.41 1011.45 1012.67 1013.31 1014.28 1015.08 1015.71 1016.41 1017.31 1017.83 1018.09 1017.98 1017.85 1017.76 1017.69 1017.75 1017.71 1017.59 1017.47 1017.35 1017.24 1016.95 1016.55 1016.15 1015.83
1011.86 1011.50 1010.88 1009.49 1009.01 1009.68 1010.19 1010.10 1010.19 1010.47 1010.58 1010.29 1009.83 1008.98 1008.38 1008.69 1009.01 1009.27 1009.67 1010.09 1010.55 1011.78 1012.81 1013.73 1014.78 1015.31 1015.89 1016.48 1017.34 1017.78 1017.73 1017.89 1018.00 1017.93 1017.85 1017.66 1017.60 1017.51 1017.44 1017.24 1017.07 1016.75 1016.27 1015.91
1012.95 1012.80 1012.35 1011.46 1010.29 1010.33 1010.07 1010.07 1009.84 1009.95 1010.17 1009.73 1009.23 1008.46 1008.11 1008.83 1009.46 1009.62 1009.48 1010.11 1010.51 1010.70 1011.49 1012.67 1014.02 1014.77 1015.64 1016.23 1016.55 1017.22 1017.41 1017.36 1017.30 1017.24 1017.40 1017.60 1017.54 1017.51 1017.30 1017.19 1017.16 1016.75 1016.35 1015.83
1013.26 1013.23 1012.93 1012.29 1011.62 1010.75 1010.14 1009.86 1009.65 1009.51 1009.57 1009.32 1008.99 1008.51 1008.38 1008.39 1008.51 1008.72 1009.35 1009.87 1010.33 1010.63 1010.82 1012.02 1013.17 1013.70 1014.95 1015.56 1016.25 1016.47 1016.35 1016.41 1016.68 1017.00 1017.09 1017.25 1017.33 1017.37 1017.17 1017.21 1017.20 1016.83 1016.32 1015.89
1012.73 1013.20 1013.14 1012.65 1012.01 1010.87 1010.03 1009.55 1009.45 1009.36 1009.27 1009.08 1008.95 1008.50 1008.54 1008.62 1008.75 1009.10 1009.57 1010.25 1010.74 1011.05 1011.79 1011.63 1012.79 1015.11 1013.95 1014.67 1015.39 1015.79 1015.95 1016.05 1016.38 1016.63 1016.73 1016.62 1016.78 1016.83 1016.77 1016.85 1016.81 1016.59 1016.23 1016.10
1012.60 1013.07 1013.41 1012.97 1012.41 1011.18 1009.90 1009.46 1009.31 1009.43 1009.41 1009.19 1008.78 1008.61 1008.47 1008.79 1009.56 1009.99 1010.33 1010.84 1011.39 1012.45 1013.39 1013.31 1014.21 1014.94 1015.08 1014.47 1015.27 1015.77 1015.95 1015.96 1016.13 1016.21 1016.22 1016.01 1016.09 1016.05 1016.23 1016.31 1016.37 1016.18 1016.07 1015.83
1012.64 1013.13 1013.53 1013.27 1012.82 1011.49 1009.89 1009.74 1009.63 1009.85 1010.03 1009.87 1009.49 1009.25 1009.44 1009.61 1010.18 1010.58 1011.39 1011.92 1012.71 1013.48 1013.71 1014.13 1014.32 1014.59 1014.89 1015.20 1015.50 1015.75 1015.79 1015.92 1016.02 1015.92 1015.74 1015.44 1015.39 1015.65 1015.88 1016.02 1016.07 1015.99 1015.95 1015.88
1012.19 1013.01 1013.41 1013.35 1012.83 1011.56 1010.21 1010.06 1010.28 1010.28 1010.58 1010.49 1010.27 1009.93 1010.19 1010.61 1011.14 1012.58 1012.99 1013.45 1013.86 1014.38 1014.39 1014.29 1014.34 1014.93 1015.37 1015.54 1015.86 1016.07 1016.23 1016.19 1015.92 1015.69 1015.60 1015.51 1015.45 1015.59 1015.63 1015.75 1016.05 1016.11 1015.90 1015.84
1012.39 1013.13 1013.83 1013.60 1013.01 1011.96 1010.93 1011.01 1011.15 1011.51 1011.42 1011.66 1011.63 1011.75 1011.84 1011.86 1011.90 1013.08 1013.91 1014.65 1015.16 1015.45 1014.99 1014.95 1015.23 1015.68 1016.35 1016.48 1016.36 1016.45 1016.40 1016.36 1016.11 1015.84 1015.75 1015.70 1015.68 1015.73 1015.85 1016.00 1016.05 1016.04 1015.91 1015.61
1012.49 1013.00 1013.45 1013.75 1013.54 1012.56 1011.43 1011.02 1011.82 1012.40 1013.45 1013.24 1013.28 1013.05 1013.18 1013.44 1013.68 1013.64 1014.17 1014.76 1015.43 1015.52 1015.76 1015.07 1015.71 1016.31 1016.48 1016.51 1016.64 1016.69 1016.59 1016.68 1016.58 1016.27 1016.14 1016.00 1015.92 1016.03 1016.00 1015.95 1016.04 1015.89 1015.69 1015.49
1012.03 1013.01 1013.05 1013.05 1013.28 1013.22 1012.73 1012.15 1012.58 1013.47 1013.59 1013.54 1013.45 1013.51 1013.76 1013.60 1014.07 1014.29 1014.53 1015.40 1015.87 1016.44 1017.47 1016.32 1016.23 1016.66 1016.93 1016.83 1016.92 1017.03 1017.09 1017.01 1017.01 1016.91 1016.67 1016.41 1016.24 1016.09 1016.02 1016.06 1016.01 1015.80 1015.42 1015.22
1011.93 1012.17 1012.67 1013.87 1013.43 1013.68 1013.59 1013.33 1013.31 1013.94 1013.94 1013.56 1013.51 1013.53 1013.87 1013.96 1014.16 1014.52 1015.29 1016.32 1016.99 1016.62 1017.01 1016.79 1016.87 1016.91 1016.86 1016.83 1017.03 1017.16 1017.14 1017.19 1017.23 1017.29 1017.23 1017.08 1016.75 1016.49 1016.12 1015.91 1015.81 1015.60 1015.40 1015.23
1012.25 1012.63 1013.03 1013.25 1012.85 1012.80 1012.94 1013.05 1013.22 1013.52 1013.86 1014.03 1014.11 1014.21 1014.29 1014.27 1014.66 1015.29 1016.21 1016.71 1017.37 1016.92 1016.48 1017.11 1017.09 1016.92 1016.93 1017.19 1017.37 1017.65 1017.82 1017.74 1017.67 1017.68 1017.45 1017.09 1016.72 1016.40 1016.17 1016.01 1015.82 1015.70 1015.68 1015.72
1012.56 1012.61 1013.10 1013.11 1012.99 1013.03 1012.99 1013.19 1013.57 1013.90 1014.21 1014.29 1014.23 1014.58 1014.91 1015.35 1015.64 1016.30 1016.76 1016.59 1017.10 1016.77 1016.83 1017.08 1017.32 1017.56 1017.67 1017.59 1017.86 1018.07 1018.08 1018.01 1017.79 1017.89 1017.67 1017.42 1016.96 1016.57 1016.24 1015.97 1016.07 1015.90 1016.27 1016.22
1012.58 1012.67 1012.94 1013.23 1013.74 1013.98 1014.01 1013.83 1013.88 1014.01 1014.33 1014.40 1014.90 1015.15 1015.34 1016.21 1016.60 1016.92 1017.65 1017.16 1016.79 1016.59 1017.22 1017.56 1017.63 1017.86 1018.00 1018.15 1018.18 1018.22 1018.25 1018.18 1018.16 1018.18 1017.92 1017.60 1017.15 1016.69 1016.52 1016.42 1016.14 1016.24 1016.23 1016.04
Wind_Speed
13 9 12 13 12 11 12 11 10 8 3 4 8 12 14 7 10 12 15 14 15 18 19 22 22 21 20 21 22 20 22 8 11 8 8 8 8 7 6 5 6 6 7 7
6 13 10 7 7 8 9 8 9 2 3 4 11 12 13 12 11 16 16 14 15 16 17 16 17 19 20 19 19 24 23 22 6 2 4 7 8 6 8 9 10 11 7 6
12 10 7 4 8 6 8 9 9 11 13 13 17 17 17 11 19 15 16 15 15 11 10 13 16 18 19 20 19 17 17 17 15 16 7 4 3 4 7 9 8 10 11 10
8 12 5 4 9 3 10 11 7 9 11 12 16 12 7 20 17 13 16 13 14 10 9 11 14 15 16 15 15 16 17 17 16 18 13 11 6 9 5 6 12 15 17 13
6 1 5 5 6 5 12 12 10 14 14 16 17 11 14 21 19 15 17 14 13 9 8 10 12 12 13 13 13 12 14 17 18 18 16 11 12 9 8 9 9 9 8 4
11 7 4 7 10 8 9 13 15 16 15 14 19 16 7 7 17 17 16 13 10 8 8 7 9 10 10 11 12 10 11 12 14 15 15 16 15 13 10 12 11 10 11 10
13 12 10 3 9 12 8 10 9 11 11 14 11 15 12 13 13 13 15 12 11 10 8 7 8 9 11 13 13 10 9 10 10 12 10 12 12 13 13 11 8 9 8 6
11 11 9 11 3 9 10 8 7 13 13 15 7 4 11 13 13 14 15 10 13 10 9 7 7 7 8 9 10 12 12 11 10 9 11 9 6 4 5 5 5 6 6 5
7 3 7 2 3 5 7 7 12 8 14 14 14 5 8 12 10 9 10 11 10 10 8 4 6 5 7 7 9 8 10 12 14 14 9 7 6 7 6 8 8 7 6 6
4 9 13 12 1 10 8 10 7 7 7 9 9 6 9 10 9 7 7 10 10 10 11 6 4 2 2 3 6 9 10 10 11 11 11 11 12 12 11 9 9 10 9 9
9 6 10 3 10 10 7 9 4 7 7 10 11 2 8 8 7 4 3 5 12 10 11 12 9 5 2 3 5 5 7 8 8 8 8 8 9 11 10 10 10 11 10 11
6 5 9 14 7 3 7 11 12 10 11 10 11 8 9 7 9 5 4 5 8 14 12 13 12 10 8 3 3 5 6 6 5 3 3 4 4 5 6 7 8 9 9 9
10 5 7 10 15 8 4 7 8 9 9 12 11 9 12 6 6 5 8 8 4 16 14 12 12 10 8 9 7 6 5 4 3 3 3 3 5 5 5 7 6 9 6 8
4 6 9 10 16 15 10 13 15 11 10 13 14 17 6 7 7 11 6 7 9 8 13 14 13 12 10 9 9 9 6 4 3 2 2 3 5 6 5 5 7 7 8 9
3 7 11 13 16 19 18 16 17 17 17 17 17 19 15 14 13 10 4 5 8 11 8 16 14 12 12 12 10 10 9 7 3 3 4 4 1 3 4 5 7 10 8 8
9 9 11 14 18 17 19 14 16 18 18 19 20 20 13 13 6 6 7 8 10 12 17 4 8 11 5 8 12 8 7 4 5 4 5 5 6 6 5 5 6 6 6 8
6 7 8 14 16 19 15 13 6 9 12 13 14 14 9 6 8 10 9 8 9 12 17 6 6 6 11 4 3 3 3 3 5 5 5 5 7 2 0 3 5 6 4 4
12 10 8 11 15 15 16 2 6 7 10 11 12 10 8 7 11 10 11 10 11 6 8 5 8 5 6 1 5 5 3 4 4 5 8 7 2 2 3 4 5 4 4 6
12 8 8 11 11 15 15 10 9 7 9 12 13 9 11 11 8 13 14 11 10 11 10 10 9 6 3 5 6 6 6 5 6 5 8 10 9 9 8 5 6 7 7 6
5 5 7 12 12 8 8 7 3 7 7 14 14 14 11 12 8 5 6 6 4 5 8 7 7 9 6 5 7 4 5 7 7 8 7 8 9 9 6 6 7 7 8 9
9 7 10 8 8 10 12 5 4 7 4 9 9 11 13 10 9 7 2 7 5 10 6 7 6 6 5 4 4 6 7 8 9 11 11 10 8 7 6 5 6 8 9 8
6 5 7 6 11 10 13 9 8 6 3 5 8 10 10 8 12 15 6 3 10 8 7 9 7 8 8 6 6 6 5 8 10 10 11 11 9 7 5 5 6 9 8 9
5 6 4 5 2 2 8 10 5 6 12 13 12 12 10 10 10 11 8 6 2 4 2 7 5 4 4 2 4 5 6 5 6 9 10 11 11 9 6 7 8 7 9 7
6 7 5 11 6 7 6 6 6 8 11 11 10 12 14 16 8 9 7 6 2 6 7 3 6 7 7 6 7 7 11 10 10 10 10 9 9 8 7 6 3 2 4 5
9 3 8 10 12 13 11 10 8 9 11 13 11 10 11 12 9 8 2 6 1 5 6 6 7 8 8 9 9 10 9 9 8 8 9 8 7 6 7 5 5 4 3 3
8 5 5 5 9 6 9 11 12 9 10 8 7 12 7 6 5 6 5 4 4 6 9 7 7 8 10 10 9 8 7 7 8 8 7 7 7 4 4 5 6 1 8 6
Wind_Direction
184 239 229 23 8 356 322 322 333 327 4 29 271 269 277 155 158 101 75 53 32 23 19 14 7 4 2 6 358 354 6 6 132 161 191 213 225 219 207 233 223 223 198 198
221 229 57 3 358 325 310 299 268 286 322 294 281 274 257 256 112 85 80 71 56 19 13 11 10 12 13 7 5 2 8 2 331 217 199 203 215 217 206 211 219 218 206 207
273 66 41 329 290 258 272 270 324 342 337 297 258 258 242 136 106 103 97 92 80 48 18 15 19 19 17 18 11 15 12 8 11 352 315 305 278 259 211 210 198 193 201 204
282 74 340 284 275 357 296 17 358 298 297 285 335 301 5 145 127 121 100 80 74 58 39 41 32 32 30 26 25 24 24 22 18 18 11 351 298 272 306 288 217 188 180 198
39 115 230 275 356 39 303 348 310 287 278 283 278 264 258 149 152 131 95 82 75 75 50 54 47 38 47 38 34 33 33 35 29 32 28 22 25 5 353 317 349 314 168 146
268 53 320 291 346 301 307 297 280 272 260 254 255 246 287 154 122 110 100 97 85 73 73 69 68 39 40 54 45 27 41 40 39 38 30 23 21 13 18 4 357 34 20 43
229 214 180 135 288 256 219 272 306 294 225 246 241 221 87 101 83 91 104 95 93 75 70 62 47 53 35 32 46 52 50 45 48 56 38 28 19 19 15 6 0 16 26 5
291 300 141 110 8 341 316 294 295 301 303 319 62 278 117 113 109 105 111 107 106 98 84 68 63 52 57 47 31 13 44 56 51 49 39 26 6 13 347 355 351 347 356 349
334 348 76 12 9 351 340 286 345 309 282 281 282 148 119 131 116 97 120 117 106 110 108 75 77 50 58 55 52 36 45 32 33 27 32 37 19 8 356 357 355 338 10 346
316 292 301 113 301 266 235 318 292 219 276 269 276 301 91 166 120 83 36 125 128 127 129 122 68 115 117 104 82 61 52 40 36 29 23 15 10 5 4 4 5 0 352 348
301 287 276 17 267 253 176 243 241 260 292 294 294 323 96 92 79 50 331 320 152 166 162 161 173 177 84 56 87 83 65 54 37 21 29 24 14 3 3 357 355 352 351 348
42 332 287 288 323 15 326 307 295 277 284 284 299 277 96 149 152 213 254 341 159 178 182 182 183 181 162 135 106 115 99 90 82 42 6 358 2 348 2 350 344 343 344 337
9 230 273 263 221 112 316 282 259 265 294 276 278 285 285 165 249 318 341 322 297 180 183 188 185 192 162 158 177 152 152 106 28 1 348 14 359 346 352 338 336 332 318 316
14 284 281 283 302 314 283 245 247 239 253 269 268 284 275 195 215 278 333 351 317 315 193 184 192 173 170 168 176 181 192 186 217 252 225 350 1 349 333 332 320 321 334 322
193 267 285 293 297 296 294 293 291 278 277 269 276 278 296 322 313 322 1 315 327 321 314 180 197 167 165 171 181 206 210 189 180 232 276 174 219 286 303 312 324 324 317 322
196 254 279 290 295 273 267 283 300 286 281 275 283 285 288 276 17 348 1 353 335 344 20 208 84 29 136 188 191 204 227 184 185 198 238 227 193 236 232 244 244 262 283 311
250 267 275 279 287 287 284 275 307 340 320 315 273 281 325 7 319 16 346 345 337 50 31 63 99 158 236 151 150 196 252 164 204 209 239 267 199 249 317 291 266 274 300 303
260 266 266 267 281 276 277 292 254 280 292 290 301 314 303 329 15 3 33 13 57 41 119 92 106 126 142 173 165 241 350 342 284 282 258 252 206 331 312 297 296 323 330 324
226 254 272 261 260 278 291 26 359 4 322 323 315 5 17 14 336 52 22 27 43 69 78 74 61 68 342 95 71 31 351 282 290 300 9 353 351 338 326 349 359 340 318 302
231 246 267 278 281 281 292 35 48 348 272 12 11 20 360 350 333 26 78 77 50 294 87 69 55 94 80 358 34 14 355 333 329 341 346 336 333 319 14 345 321 302 288 299
207 223 225 242 266 280 301 12 108 275 34 9 360 349 360 342 336 340 93 120 14 50 13 81 55 98 94 49 22 353 357 349 347 340 339 332 347 343 309 323 304 297 300 303
203 184 261 247 241 253 5 326 333 30 305 302 315 318 316 313 320 324 13 77 80 63 341 22 37 27 21 65 41 14 353 348 336 327 326 328 324 317 325 305 299 297 297 300
261 278 297 179 330 279 306 312 332 333 302 302 323 327 310 312 300 313 92 81 3 117 175 315 341 295 266 328 11 325 332 327 343 341 332 330 330 324 318 325 294 302 313 321
232 284 308 308 265 280 286 268 302 13 352 341 325 316 314 315 12 20 58 67 52 41 49 314 302 355 13 23 28 25 21 7 358 340 317 312 305 314 315 297 349 357 37 0
288 257 259 270 287 351 343 2 344 343 342 319 334 347 346 337 9 51 155 111 123 34 7 358 6 28 6 353 21 356 345 329 336 323 331 333 327 314 312 330 5 11 55 13
296 339 314 337 348 319 309 331 336 333 309 327 342 341 359 25 55 70 264 337 5 28 32 11 353 355 359 341 336 330 325 343 340 338 336 337 323 332 349 339 346 172 322 285